Location: Le Petit-Vavre
(46.5081°N, 1.5239°E)
Time: 14:45:52
(UTC+00:00)

Okean 3 - Pass Details

Date: 03 March 2021
Orbit: 576 x 600 km, 82.5° (Epoch: 19 April)

Event Time Altitude Azimuth Distance (km) Brightness Sun altitude
Rises 20:12:54 0° 346° (NNW) 2,833 7.4 -26.3°
Reaches altitude 10° 20:15:09 10° 341° (NNW) 1,931 6.5 -26.6°
Maximum altitude 20:19:16 50° 266° (W) 766 4.2 -27.3°
Enters shadow 20:19:21 49° 262° (W) 767 4.2 -27.3°
